Location: Berlin
(38.3226°N, 75.2177°W)
Time: 21:43:49
(UTC+00:00)

Lacrosse 5 rocket - Pass Details

Date: 26 October 2020
Orbit: 458 x 638 km, 57.0° (Epoch: 05 December)

Event Time Altitude Azimuth Distance (km) Brightness Sun altitude
Exits shadow 09:22:37 40° 31° (NNE) 713 2.1 -23.9°
Drops below altitude 10° 09:25:07 10° 39° (NE) 1,660 4.3 -23.4°
Sets 09:27:20 0° 41° (NE) 2,569 5.4 -22.9°
